DEKLB EHSE-EHSE

Flight info

Callsign DEKLB
Flight time 0h 56m
Altitude 3000
Route RTM
Aircraft C172/L-SFG/C

Departure

Time 2026-04-14 18:45
Airport Breda International Airport (EHSE)

Arrival

Time 2026-04-14 19:42
Airport Breda International Airport (EHSE)
Time Latitude Longitude Altitude Speed Heading
2026-04-14 18:42 51.55681 4.55820 35 ft 0 kts 65°
2026-04-14 18:43 51.55688 4.55842 36 ft 7 kts 65°
2026-04-14 18:43 51.55689 4.55846 35 ft 0 kts 66°
2026-04-14 18:44 51.55678 4.55867 35 ft 11 kts 158°
2026-04-14 18:44 51.55618 4.55778 34 ft 4 kts 248°
2026-04-14 18:44 51.55563 4.55566 33 ft 45 kts 246°
2026-04-14 18:44 51.55387 4.54925 95 ft 70 kts 248°
2026-04-14 18:45 51.55217 4.54208 267 ft 72 kts 253°
2026-04-14 18:45 51.55059 4.53433 480 ft 69 kts 248°
2026-04-14 18:45 51.54882 4.52602 573 ft 82 kts 254°
2026-04-14 18:45 51.54750 4.51685 693 ft 88 kts 258°
2026-04-14 18:46 51.54668 4.50707 837 ft 89 kts 265°
2026-04-14 18:46 51.54697 4.49692 984 ft 90 kts 276°
2026-04-14 18:46 51.54848 4.48666 1039 ft 104 kts 287°
2026-04-14 18:46 51.55236 4.47633 1170 ft 111 kts 301°
2026-04-14 18:47 51.55700 4.46631 1292 ft 113 kts 309°
2026-04-14 18:47 51.56267 4.45661 1298 ft 123 kts 316°
2026-04-14 18:47 51.57018 4.45035 1398 ft 118 kts 350°
2026-04-14 18:47 51.57810 4.45341 1444 ft 118 kts 33°
2026-04-14 18:48 51.58319 4.46306 1547 ft 118 kts 71°
2026-04-14 18:48 51.58563 4.47590 1549 ft 124 kts 76°
2026-04-14 18:48 51.58780 4.48951 1552 ft 126 kts 85°
2026-04-14 18:48 51.58862 4.50349 1602 ft 125 kts 88°
2026-04-14 18:49 51.59002 4.51710 1715 ft 121 kts 76°
2026-04-14 18:49 51.59265 4.53013 1741 ft 127 kts 71°
2026-04-14 18:49 51.59920 4.53972 1686 ft 136 kts 14°
2026-04-14 18:49 51.60753 4.54086 1789 ft 112 kts 284°
2026-04-14 18:50 51.60547 4.53199 1338 ft 135 kts 234°
2026-04-14 18:50 51.59986 4.52119 1398 ft 126 kts 233°
2026-04-14 18:50 51.59520 4.50954 1433 ft 123 kts 236°
2026-04-14 18:50 51.59069 4.49376 1452 ft 110 kts 260°
2026-04-14 18:51 51.59278 4.48183 1565 ft 115 kts 300°
2026-04-14 18:51 51.59589 4.47485 1620 ft 109 kts 305°
2026-04-14 18:51 51.60066 4.46447 1647 ft 120 kts 303°
2026-04-14 18:51 51.60555 4.45346 1643 ft 117 kts 303°
2026-04-14 18:52 51.61047 4.44281 1662 ft 119 kts 304°
2026-04-14 18:52 51.61528 4.43225 1675 ft 120 kts 304°
2026-04-14 18:52 51.62019 4.42152 1682 ft 112 kts 304°
2026-04-14 18:52 51.62487 4.41115 1682 ft 113 kts 304°
2026-04-14 18:53 51.62960 4.40082 1645 ft 110 kts 304°
2026-04-14 18:53 51.63431 4.39039 1568 ft 117 kts 304°
2026-04-14 18:53 51.63904 4.37998 1554 ft 110 kts 302°
2026-04-14 18:53 51.64348 4.36940 1525 ft 118 kts 299°
2026-04-14 18:54 51.64790 4.35846 1462 ft 119 kts 300°
2026-04-14 18:54 51.65231 4.34766 1401 ft 115 kts 300°
2026-04-14 18:54 51.65662 4.33695 1376 ft 116 kts 301°
2026-04-14 18:54 51.66105 4.32633 1318 ft 114 kts 302°
2026-04-14 18:55 51.66558 4.31573 1296 ft 114 kts 303°
2026-04-14 18:55 51.66998 4.30526 1289 ft 115 kts 301°
2026-04-14 18:55 51.67425 4.29466 1235 ft 116 kts 302°
2026-04-14 18:55 51.67846 4.28433 1297 ft 115 kts 301°
2026-04-14 18:56 51.68263 4.27380 1318 ft 112 kts 300°
2026-04-14 18:56 51.68651 4.26315 1357 ft 109 kts 295°
2026-04-14 18:56 51.69011 4.25213 1329 ft 102 kts 294°
2026-04-14 18:56 51.69339 4.24178 1203 ft 102 kts 295°
2026-04-14 18:57 51.69647 4.23154 1287 ft 105 kts 292°
2026-04-14 18:57 51.69973 4.22041 1332 ft 114 kts 292°
2026-04-14 18:57 51.70303 4.20892 1329 ft 113 kts 291°
2026-04-14 18:57 51.70612 4.19732 1350 ft 110 kts 289°
2026-04-14 18:58 51.70879 4.18606 1334 ft 110 kts 288°
2026-04-14 18:58 51.71130 4.17511 1362 ft 104 kts 287°
2026-04-14 18:58 51.71379 4.16372 1402 ft 114 kts 287°
2026-04-14 18:58 51.71640 4.15137 1471 ft 116 kts 289°
2026-04-14 18:59 51.71889 4.13879 1509 ft 117 kts 283°
2026-04-14 18:59 51.72111 4.12637 1541 ft 114 kts 283°
2026-04-14 18:59 51.72346 4.11399 1500 ft 114 kts 285°
2026-04-14 18:59 51.72567 4.10148 1497 ft 119 kts 283°
2026-04-14 19:00 51.72799 4.08885 1472 ft 115 kts 282°
2026-04-14 19:00 51.73004 4.07628 1467 ft 116 kts 282°
2026-04-14 19:00 51.73189 4.06334 1467 ft 115 kts 279°
2026-04-14 19:00 51.73285 4.05074 1488 ft 116 kts 267°
2026-04-14 19:01 51.73278 4.03837 1408 ft 113 kts 261°
2026-04-14 19:01 51.72859 4.02755 1313 ft 122 kts 220°
2026-04-14 19:01 51.72376 4.01886 1363 ft 96 kts 228°
2026-04-14 19:01 51.71935 4.01007 1344 ft 105 kts 230°
2026-04-14 19:02 51.71479 4.00062 994 ft 106 kts 234°
2026-04-14 19:02 51.71086 3.99222 867 ft 84 kts 230°
2026-04-14 19:02 51.70671 3.98523 747 ft 87 kts 223°
2026-04-14 19:02 51.70242 3.97873 851 ft 83 kts 221°
2026-04-14 19:03 51.69807 3.97271 912 ft 83 kts 209°
2026-04-14 19:03 51.69288 3.97395 915 ft 90 kts 122°
2026-04-14 19:03 51.69305 3.98388 886 ft 98 kts 73°
2026-04-14 19:03 51.69570 3.99493 722 ft 109 kts 65°
2026-04-14 19:04 51.70021 4.00474 636 ft 106 kts 44°
2026-04-14 19:04 51.70563 4.01222 611 ft 101 kts 41°
2026-04-14 19:04 51.71175 4.01817 555 ft 103 kts 28°
2026-04-14 19:04 51.71808 4.02336 527 ft 103 kts 29°
2026-04-14 19:05 51.72488 4.02776 559 ft 106 kts 15°
2026-04-14 19:05 51.73212 4.02962 639 ft 104 kts
2026-04-14 19:05 51.73921 4.03030 847 ft 104 kts
2026-04-14 19:05 51.74678 4.03026 932 ft 115 kts 358°
2026-04-14 19:06 51.75406 4.03033 946 ft 95 kts
2026-04-14 19:06 51.76109 4.03025 877 ft 102 kts
2026-04-14 19:06 51.76815 4.03022 866 ft 102 kts 358°
2026-04-14 19:06 51.77522 4.02979 855 ft 102 kts 357°
2026-04-14 19:07 51.78229 4.02942 851 ft 103 kts 359°
2026-04-14 19:07 51.78941 4.02925 844 ft 99 kts 359°
2026-04-14 19:07 51.79600 4.02922 853 ft 92 kts 360°
2026-04-14 19:07 51.80260 4.02911 857 ft 100 kts
2026-04-14 19:08 51.80999 4.02888 856 ft 110 kts 358°
2026-04-14 19:08 51.81741 4.02871 803 ft 105 kts
2026-04-14 19:08 51.82479 4.02898 735 ft 105 kts
2026-04-14 19:08 51.83177 4.02827 725 ft 103 kts 357°
2026-04-14 19:09 51.83858 4.02757 826 ft 96 kts 356°
2026-04-14 19:09 51.84528 4.02717 870 ft 96 kts
2026-04-14 19:09 51.85193 4.02698 879 ft 95 kts 358°
2026-04-14 19:09 51.85866 4.02658 927 ft 102 kts 358°
2026-04-14 19:10 51.86616 4.02649 983 ft 116 kts
2026-04-14 19:10 51.87395 4.02866 1087 ft 110 kts 12°
2026-04-14 19:10 51.88136 4.03125 1298 ft 108 kts 13°
2026-04-14 19:10 51.88841 4.03392 1462 ft 103 kts 18°
2026-04-14 19:11 51.89554 4.03867 1477 ft 119 kts 32°
2026-04-14 19:11 51.90256 4.04598 1515 ft 116 kts 36°
2026-04-14 19:11 51.90920 4.05354 1508 ft 119 kts 39°
2026-04-14 19:11 51.91562 4.06170 1483 ft 114 kts 41°
2026-04-14 19:12 51.92182 4.07007 1437 ft 121 kts 42°
2026-04-14 19:12 51.92829 4.07897 1409 ft 121 kts 43°
2026-04-14 19:12 51.94093 4.09665 1453 ft 123 kts 41°
2026-04-14 19:13 51.94780 4.10471 1496 ft 116 kts 37°
2026-04-14 19:13 51.95392 4.11229 1371 ft 110 kts 42°
2026-04-14 19:13 51.95936 4.12015 1260 ft 102 kts 51°
2026-04-14 19:13 51.96213 4.13061 1274 ft 105 kts 87°
2026-04-14 19:14 51.96211 4.14274 1239 ft 109 kts 95°
2026-04-14 19:14 51.96202 4.15532 1327 ft 112 kts 93°
2026-04-14 19:14 51.96202 4.16711 1304 ft 103 kts 94°
2026-04-14 19:14 51.96227 4.17851 1345 ft 102 kts 89°
2026-04-14 19:15 51.96278 4.19053 1343 ft 115 kts 90°
2026-04-14 19:15 51.96344 4.20349 1431 ft 111 kts 87°
2026-04-14 19:15 51.96422 4.21585 1452 ft 112 kts 87°
2026-04-14 19:15 51.96502 4.22823 1437 ft 113 kts 88°
2026-04-14 19:16 51.96543 4.24105 1462 ft 112 kts 93°
2026-04-14 19:16 51.96541 4.25399 1316 ft 120 kts 91°
2026-04-14 19:16 51.96550 4.26721 1297 ft 115 kts 92°
2026-04-14 19:16 51.96557 4.28016 1287 ft 112 kts 94°
2026-04-14 19:17 51.96553 4.29268 1190 ft 115 kts 92°
2026-04-14 19:17 51.96551 4.30567 1142 ft 112 kts 93°
2026-04-14 19:17 51.96565 4.31828 1070 ft 113 kts 92°
2026-04-14 19:17 51.96636 4.33083 1012 ft 111 kts 86°
2026-04-14 19:18 51.96692 4.34327 896 ft 111 kts 88°
2026-04-14 19:18 51.96738 4.35585 899 ft 110 kts 88°
2026-04-14 19:18 51.96805 4.36841 829 ft 114 kts 87°
2026-04-14 19:18 51.96845 4.38101 718 ft 114 kts 89°
2026-04-14 19:19 51.96781 4.39385 631 ft 113 kts 101°
2026-04-14 19:19 51.96600 4.40603 619 ft 110 kts 103°
2026-04-14 19:19 51.96584 4.41777 636 ft 105 kts 69°
2026-04-14 19:19 51.96967 4.42835 567 ft 110 kts 55°
2026-04-14 19:20 51.97415 4.43819 609 ft 108 kts 53°
2026-04-14 19:20 51.97892 4.44801 606 ft 112 kts 52°
2026-04-14 19:20 51.97837 4.45916 529 ft 114 kts 139°
2026-04-14 19:20 51.97221 4.46617 451 ft 100 kts 153°
2026-04-14 19:21 51.96623 4.46322 298 ft 105 kts 230°
2026-04-14 19:21 51.96215 4.45392 123 ft 99 kts 237°
2026-04-14 19:21 51.95815 4.44373 42 ft 117 kts 239°
2026-04-14 19:21 51.95355 4.43234 111 ft 121 kts 232°
2026-04-14 19:22 51.94925 4.42214 385 ft 104 kts 237°
2026-04-14 19:22 51.94520 4.41235 512 ft 103 kts 236°
2026-04-14 19:22 51.94122 4.40297 599 ft 99 kts 234°
2026-04-14 19:22 51.93585 4.39647 631 ft 104 kts 180°
2026-04-14 19:23 51.92931 4.40219 677 ft 113 kts 141°
2026-04-14 19:23 51.92342 4.40992 914 ft 106 kts 132°
2026-04-14 19:23 51.92139 4.42151 1025 ft 116 kts 85°
2026-04-14 19:23 51.92459 4.43258 1064 ft 95 kts 64°
2026-04-14 19:24 51.92781 4.44187 1169 ft 97 kts 63°
2026-04-14 19:24 51.93106 4.45180 1303 ft 103 kts 70°
2026-04-14 19:24 51.93375 4.46316 1409 ft 111 kts 76°
2026-04-14 19:24 51.93608 4.47534 1492 ft 115 kts 74°
2026-04-14 19:25 51.93892 4.48744 1497 ft 112 kts 73°
2026-04-14 19:25 51.94181 4.49965 1444 ft 117 kts 73°
2026-04-14 19:25 51.94376 4.51222 1430 ft 108 kts 96°
2026-04-14 19:25 51.93937 4.52076 1321 ft 109 kts 162°
2026-04-14 19:26 51.93179 4.52263 1097 ft 109 kts 166°
2026-04-14 19:26 51.92474 4.52784 1051 ft 104 kts 158°
2026-04-14 19:26 51.91810 4.53158 1012 ft 99 kts 164°
2026-04-14 19:26 51.91163 4.53528 1028 ft 98 kts 161°
2026-04-14 19:27 51.90545 4.53904 907 ft 95 kts 158°
2026-04-14 19:27 51.89947 4.54432 773 ft 102 kts 149°
2026-04-14 19:27 51.89338 4.55020 771 ft 100 kts 150°
2026-04-14 19:27 51.88775 4.55533 752 ft 88 kts 153°
2026-04-14 19:28 51.88222 4.56055 663 ft 98 kts 148°
2026-04-14 19:28 51.87614 4.56599 648 ft 97 kts 149°
2026-04-14 19:28 51.87048 4.57208 660 ft 101 kts 145°
2026-04-14 19:28 51.86479 4.57870 720 ft 100 kts 141°
2026-04-14 19:29 51.85932 4.58595 751 ft 99 kts 141°
2026-04-14 19:29 51.85409 4.59304 729 ft 95 kts 142°
2026-04-14 19:29 51.84866 4.59970 808 ft 103 kts 146°
2026-04-14 19:29 51.84281 4.60649 895 ft 103 kts 146°
2026-04-14 19:30 51.83703 4.61302 951 ft 97 kts 146°
2026-04-14 19:30 51.83156 4.61913 1009 ft 95 kts 148°
2026-04-14 19:30 51.82585 4.62457 985 ft 97 kts 162°
2026-04-14 19:30 51.81924 4.62628 972 ft 96 kts 178°
2026-04-14 19:31 51.81256 4.62645 981 ft 95 kts 180°
2026-04-14 19:31 51.80603 4.62619 1007 ft 93 kts 182°
2026-04-14 19:31 51.79954 4.62588 1047 ft 96 kts 182°
2026-04-14 19:31 51.79283 4.62553 1104 ft 97 kts 182°
2026-04-14 19:32 51.78599 4.62517 1121 ft 100 kts 182°
2026-04-14 19:32 51.77876 4.62480 1123 ft 107 kts 183°
2026-04-14 19:32 51.77122 4.62438 1124 ft 110 kts 182°
2026-04-14 19:32 51.76375 4.62398 1118 ft 106 kts 182°
2026-04-14 19:33 51.75886 4.62374 1114 ft 105 kts 182°
2026-04-14 19:33 51.75154 4.62336 1117 ft 106 kts 182°
2026-04-14 19:33 51.74414 4.62299 1117 ft 107 kts 182°
2026-04-14 19:33 51.73667 4.62259 1118 ft 108 kts 182°
2026-04-14 19:34 51.72166 4.62178 1120 ft 109 kts 182°
2026-04-14 19:34 51.71405 4.62134 1122 ft 110 kts 182°
2026-04-14 19:34 51.70640 4.62089 1124 ft 110 kts 182°
2026-04-14 19:35 51.69873 4.62036 1123 ft 110 kts 183°
2026-04-14 19:35 51.69105 4.61996 1121 ft 111 kts 182°
2026-04-14 19:35 51.68341 4.61952 1123 ft 111 kts 183°
2026-04-14 19:35 51.67562 4.61909 1124 ft 110 kts 183°
2026-04-14 19:36 51.66819 4.61707 1121 ft 110 kts 195°
2026-04-14 19:36 51.66076 4.61394 1120 ft 110 kts 194°
2026-04-14 19:36 51.65337 4.61083 1121 ft 109 kts 194°
2026-04-14 19:36 51.64600 4.60768 1121 ft 110 kts 194°
2026-04-14 19:37 51.63857 4.60448 1116 ft 111 kts 195°
2026-04-14 19:37 51.63107 4.60136 1123 ft 110 kts 194°
2026-04-14 19:37 51.62395 4.59824 1116 ft 113 kts 194°
2026-04-14 19:37 51.61624 4.59499 1123 ft 116 kts 195°
2026-04-14 19:38 51.60838 4.59174 1122 ft 119 kts 195°
2026-04-14 19:38 51.60023 4.58836 1123 ft 120 kts 194°
2026-04-14 19:38 51.59237 4.58514 1068 ft 107 kts 193°
2026-04-14 19:38 51.58561 4.58272 947 ft 93 kts 194°
2026-04-14 19:39 51.57920 4.58008 910 ft 95 kts 195°
2026-04-14 19:39 51.57272 4.57835 859 ft 96 kts 178°
2026-04-14 19:39 51.56576 4.57843 771 ft 102 kts 195°
2026-04-14 19:39 51.56035 4.57173 727 ft 97 kts 229°
2026-04-14 19:40 51.55670 4.56290 562 ft 89 kts 240°
2026-04-14 19:40 51.55407 4.55415 424 ft 88 kts 246°
2026-04-14 19:40 51.54905 4.55187 481 ft 99 kts 148°
2026-04-14 19:40 51.54635 4.56028 564 ft 96 kts 68°
2026-04-14 19:41 51.54962 4.57020 531 ft 94 kts 71°
2026-04-14 19:41 51.55268 4.57916 526 ft 93 kts 34°
2026-04-14 19:41 51.55811 4.57642 520 ft 72 kts 308°
2026-04-14 19:41 51.55868 4.56901 298 ft 68 kts 259°
2026-04-14 19:42 51.55740 4.56220 117 ft 59 kts 249°
2026-04-14 19:42 51.55597 4.55675 30 ft 44 kts 246°
2026-04-14 19:42 51.55495 4.55312 30 ft 37 kts 246°
2026-04-14 19:42 51.55467 4.55042 32 ft 17 kts 307°
2026-04-14 19:43 51.55456 4.54922 32 ft 7 kts 207°
2026-04-14 19:43 51.55449 4.54924 32 ft 0 kts 152°